Grant County, OR

2:18 AM PST on November 19, 2017 (GMT -0800)
Grant County Regional

Weather History for KGCD - May, 2013

Change the Weather History Date:

Monday, May 20, 2013

  Actual Average (KBNO) Record (KBNO)
Temperature  
Mean Temperature 55 °F -  
Max Temperature 73 °F 66 °F 84 °F (1980)
Min Temperature 37 °F 35 °F 25 °F (1987)
Degree Days  
Heating Degree Days 10    
Growing Degree Days 5 (Base 50)    
Moisture  
Dew Point 37 °F    
Average Humidity 52    
Maximum Humidity 92    
Minimum Humidity 25    
Precipitation  
Precipitation 0.00 in - - ()
Sea Level Pressure  
Sea Level Pressure 30.14 in    
Wind  
Wind Speed 5 mph (ESE)    
Max Wind Speed 13 mph    
Max Gust Speed -    
Visibility 10 miles    
Events      
Averages and records for this station are not official NWS values.
T = Trace of Precipitation, MM = Missing Value Source: NWS Daily Summary

Daily Weather History Graph

Daily Weather History Graph

Search for Another Location

Airport or City:

Trip Planner

Search our weather history database for the weather conditions in past years. The results will help you decide how hot, cold, wet, or windy it might be!

Date:

Astronomy

May. 20, 2013 Rise Set
Actual Time 5:23 AM PDT 8:22 PM PDT
Civil Twilight 4:48 AM PDT 8:56 PM PDT
Nautical Twilight 4:04 AM PDT 9:40 PM PDT
Astronomical Twilight 3:12 AM PDT 10:33 PM PDT
Moon 3:24 PM PDT (5/20) 2:32 AM PDT (5/20)
Length of Visible Light 16h 07m
Length of Day
14h 59m
Waxing Gibbous, 76% of the Moon is Illuminated
May 20
Waxing Gibbous
May 24
Full
May 31
Last Quarter
Jun 8
New
Jun 16
First Quarter

Hourly Weather History & Observations

Time (PDT) Temp. Windchill Dew Point Humidity Pressure Visibility Wind Dir Wind Speed Gust Speed Precip Events Conditions
12:15 AM 44.6 °F 40.7 °F 39.4 °F 82% 30.29 in 10.0 mi East 6.9 mph - N/A   Clear
12:35 AM 44.2 °F 40.3 °F 39.2 °F 82% 30.29 in 10.0 mi ESE 6.9 mph - N/A   Clear
1:15 AM 43.2 °F 39.7 °F 38.7 °F 84% 30.28 in 10.0 mi ESE 5.8 mph - N/A   Clear
1:35 AM 41.5 °F 36.4 °F 38.3 °F 88% 30.28 in 10.0 mi East 8.1 mph - N/A   Clear
1:55 AM 40.6 °F 34.8 °F 38.3 °F 91% 30.28 in 10.0 mi ESE 9.2 mph - N/A   Clear
2:35 AM 40.6 °F 38.6 °F 37.6 °F 89% 30.27 in 10.0 mi SE 3.5 mph - N/A   Clear
2:55 AM 40.5 °F - 37.4 °F 89% 30.29 in 10.0 mi Calm Calm - N/A   Clear
3:15 AM 39.4 °F 36.1 °F 36.9 °F 91% 30.29 in 10.0 mi WSW 4.6 mph - N/A   Clear
3:35 AM 39.9 °F - 37.4 °F 91% 30.29 in 10.0 mi Calm Calm - N/A   Clear
3:55 AM 40.6 °F - 37.0 °F 87% 30.29 in 10.0 mi Calm Calm - N/A   Clear
4:15 AM 39.6 °F - 36.1 °F 88% 30.29 in 10.0 mi Calm Calm - N/A   Clear
4:35 AM 41.4 °F - 37.4 °F 86% 30.30 in 10.0 mi Calm Calm - N/A   Clear
4:55 AM 38.8 °F 34.6 °F 35.4 °F 88% 30.30 in 10.0 mi ESE 5.8 mph - N/A   Clear
5:15 AM 38.3 °F 32.5 °F 35.4 °F 89% 30.30 in 10.0 mi ESE 8.1 mph - N/A   Clear
5:35 AM 37.8 °F 30.7 °F 35.6 °F 92% 30.30 in 10.0 mi ESE 10.4 mph - N/A   Clear
5:55 AM 37.9 °F 30.9 °F 35.6 °F 91% 30.30 in 10.0 mi ESE 10.4 mph - N/A   Clear
6:15 AM 38.8 °F 32.1 °F 35.6 °F 88% 30.30 in 10.0 mi ESE 10.4 mph - N/A   Clear
6:35 AM 40.1 °F 33.6 °F 36.0 °F 85% 30.30 in 10.0 mi ESE 10.4 mph - N/A   Clear
7:15 AM 41.9 °F 36.9 °F 36.9 °F 82% 30.29 in 10.0 mi East 8.1 mph - N/A   Clear
7:35 AM 43.3 °F 39.2 °F 37.4 °F 80% 30.29 in 10.0 mi ESE 6.9 mph - N/A   Clear
7:55 AM 44.8 °F 42.4 °F 37.8 °F 76% 30.29 in 10.0 mi ESE 4.6 mph - N/A   Clear
8:35 AM 48.9 °F - 39.0 °F 69% 30.28 in 10.0 mi Calm Calm - N/A   Clear
8:55 AM 51.1 °F - 39.7 °F 65% 30.27 in 10.0 mi Calm Calm - N/A   Clear
9:15 AM 52.2 °F - 39.9 °F 63% 30.26 in 10.0 mi Calm Calm - N/A   Clear
9:35 AM 53.4 °F - 40.1 °F 61% 30.25 in 10.0 mi Calm Calm - N/A   Clear
9:55 AM 55.2 °F - 40.8 °F 58% 30.24 in 10.0 mi Calm Calm - N/A   Clear
10:15 AM 56.3 °F - 40.1 °F 55% 30.23 in 10.0 mi NNW 3.5 mph - N/A   Clear
10:35 AM 57.0 °F - 38.8 °F 51% 30.23 in 10.0 mi Calm Calm - N/A   Clear
11:15 AM 60.4 °F - 34.7 °F 38% 30.21 in 10.0 mi East 4.6 mph - N/A   Clear
11:55 AM 62.6 °F - 36.1 °F 37% 30.19 in 10.0 mi Calm Calm - N/A   Clear
12:15 PM 64.4 °F - 37.2 °F 37% 30.19 in 10.0 mi SSW 4.6 mph - N/A   Clear
12:35 PM 64.6 °F - 37.4 °F 37% 30.18 in 10.0 mi West 6.9 mph - N/A   Clear
12:55 PM 64.9 °F - 37.4 °F 36% 30.16 in 10.0 mi Calm Calm - N/A   Clear
1:15 PM 66.0 °F - 38.3 °F 36% 30.15 in 10.0 mi WNW 4.6 mph - N/A   Clear
1:35 PM 67.3 °F - 38.5 °F 35% 30.14 in 10.0 mi North 4.6 mph - N/A   Clear
1:55 PM 68.2 °F - 39.0 °F 34% 30.13 in 10.0 mi Calm Calm - N/A   Clear
2:15 PM 68.2 °F - 38.5 °F 34% 30.12 in 10.0 mi NW 4.6 mph - N/A   Clear
2:35 PM 69.8 °F - 38.7 °F 32% 30.10 in 10.0 mi NNE 9.2 mph - N/A   Clear
2:55 PM 71.1 °F - 38.5 °F 31% 30.10 in 10.0 mi Calm Calm - N/A   Clear
3:15 PM 70.0 °F - 35.6 °F 28% 30.09 in 10.0 mi NE 3.5 mph - N/A   Clear
3:35 PM 71.6 °F - 36.5 °F 28% 30.08 in 10.0 mi ESE 6.9 mph - N/A   Clear
3:55 PM 72.3 °F - 36.5 °F 27% 30.06 in 10.0 mi ENE 4.6 mph - N/A   Clear
4:15 PM 72.5 °F - 36.3 °F 27% 30.05 in 10.0 mi ENE 4.6 mph - N/A   Clear
4:35 PM 73.4 °F - 37.0 °F 27% 30.04 in 10.0 mi West 9.2 mph - N/A   Clear
4:55 PM 73.6 °F - 37.4 °F 27% 30.03 in 10.0 mi North 4.6 mph - N/A   Clear
5:15 PM 72.9 °F - 36.7 °F 27% 30.03 in 10.0 mi WNW 3.5 mph - N/A   Clear
5:35 PM 73.4 °F - 35.4 °F 25% 30.01 in 10.0 mi Calm Calm - N/A   Clear
5:55 PM 73.4 °F - 36.5 °F 26% 30.01 in 10.0 mi WSW 4.6 mph - N/A   Clear
6:15 PM 73.0 °F - 35.4 °F 25% 30.00 in 10.0 mi Calm Calm - N/A   Clear
6:35 PM 72.9 °F - 37.0 °F 27% 29.99 in 10.0 mi WNW 6.9 mph - N/A   Clear
6:55 PM 72.1 °F - 34.9 °F 26% 29.98 in 10.0 mi Calm Calm - N/A   Clear
7:15 PM 71.6 °F - 34.5 °F 26% 29.98 in 10.0 mi Calm Calm - N/A   Clear
7:35 PM 70.7 °F - 37.4 °F 30% 29.97 in 10.0 mi Calm Calm - N/A   Clear
7:55 PM 68.7 °F - 35.8 °F 30% 29.97 in 10.0 mi South 6.9 mph - N/A   Clear
8:15 PM 67.1 °F - 32.4 °F 28% 29.96 in 10.0 mi South 9.2 mph - N/A   Clear
8:35 PM 65.3 °F - 33.1 °F 30% 29.96 in 10.0 mi South 9.2 mph - N/A   Clear
8:55 PM 63.9 °F - 33.1 °F 32% 29.95 in 10.0 mi South 10.4 mph - N/A   Clear
9:15 PM 63.7 °F - 32.9 °F 32% 29.95 in 10.0 mi SSE 11.5 mph - N/A   Clear
9:35 PM 62.8 °F - 32.7 °F 32% 29.94 in 10.0 mi SSE 10.4 mph - N/A   Clear
9:55 PM 61.2 °F - 33.1 °F 35% 29.94 in 10.0 mi South 12.7 mph - N/A   Clear
10:15 PM 58.6 °F - 35.1 °F 41% 29.93 in 10.0 mi East 10.4 mph - N/A   Clear
10:35 PM 60.1 °F - 32.5 °F 35% 29.92 in 10.0 mi ESE 8.1 mph - N/A   Clear
10:55 PM 59.9 °F - 32.4 °F 35% 29.92 in 10.0 mi East 8.1 mph - N/A   Clear
11:15 PM 58.5 °F - 32.7 °F 38% 29.91 in 10.0 mi East 10.4 mph - N/A   Clear
11:35 PM 57.2 °F - 32.4 °F 39% 29.90 in 10.0 mi East 6.9 mph - N/A   Clear
11:55 PM 56.3 °F - 32.0 °F 40% 29.90 in 10.0 mi East 8.1 mph - N/A   Clear